Bedford, MA

9:29 PM EDT on July 22, 2017 (GMT -0400)
Hanscom

Weather History for KBED - October, 2011

Change the Weather History Date:

Wednesday, October 19, 2011

  Actual Average Record
Temperature  
Mean Temperature 50 °F -  
Max Temperature 57 °F 59 °F 82 °F (1963)
Min Temperature 44 °F 38 °F 20 °F (1974)
Degree Days  
Heating Degree Days 14    
Moisture  
Dew Point 52 °F    
Average Humidity 96    
Maximum Humidity 100    
Minimum Humidity 93    
Precipitation  
Precipitation 0.89 in - - ()
Sea Level Pressure  
Sea Level Pressure 29.84 in    
Wind  
Wind Speed 6 mph (NE)    
Max Wind Speed 17 mph    
Max Gust Speed 25 mph    
Visibility 5 miles    
Events Rain    
Averages and records for this station are not official NWS values.
T = Trace of Precipitation, MM = Missing Value Source: NWS Daily Summary

Daily Weather History Graph

Daily Weather History Graph

Search for Another Location

Airport or City:

Trip Planner

Search our weather history database for the weather conditions in past years. The results will help you decide how hot, cold, wet, or windy it might be!

Date:

Astronomy

Oct. 19, 2011 Rise Set
Actual Time 7:02 AM EDT 5:57 PM EDT
Civil Twilight 6:33 AM EDT 6:25 PM EDT
Nautical Twilight 6:01 AM EDT 6:58 PM EDT
Astronomical Twilight 5:28 AM EDT 7:30 PM EDT
Moon 11:36 PM EDT (10/19) 1:34 PM EDT (10/19)
Length of Visible Light 11h 51m
Length of Day
10h 54m
Waning Gibbous, 55% of the Moon is Illuminated
Oct 19
Waning Gibbous
Oct 19
Last Quarter
Oct 26
New
Nov 2
First Quarter
Nov 10
Full

Hourly Weather History & Observations

Time (EDT) Temp. Dew Point Humidity Pressure Visibility Wind Dir Wind Speed Gust Speed Precip Events Conditions
12:07 AM 44.6 °F 44.6 °F 100% 29.94 in 2.5 mi Calm Calm - N/A   Clear
12:16 AM 44.6 °F 44.6 °F 100% 29.94 in 10.0 mi Calm Calm - N/A   Clear
12:56 AM 44.1 °F 44.1 °F 100% 30.00 in 10.0 mi Calm Calm - N/A   Partly Cloudy
1:56 AM 45.0 °F 44.1 °F 97% 29.99 in 10.0 mi Calm Calm - N/A   Scattered Clouds
2:56 AM 46.4 °F 44.6 °F 93% 29.93 in 10.0 mi Calm Calm - N/A   Partly Cloudy
3:56 AM 46.0 °F 45.0 °F 96% 29.98 in 10.0 mi Calm Calm - N/A   Partly Cloudy
4:56 AM 46.9 °F 46.0 °F 97% 29.98 in 10.0 mi Calm Calm - N/A   Clear
5:56 AM 48.0 °F 46.9 °F 96% 29.98 in 10.0 mi Calm Calm - N/A   Clear
6:56 AM 48.0 °F 46.9 °F 96% 30.00 in 10.0 mi Calm Calm - N/A   Clear
7:56 AM 50.0 °F 48.2 °F 94% 29.96 in 10.0 mi Calm Calm - N/A   Overcast
8:56 AM 53.1 °F 52.0 °F 96% 30.01 in 10.0 mi NNE 4.6 mph - N/A   Overcast
9:56 AM 53.6 °F 53.6 °F 100% 29.95 in 9.0 mi NE 6.9 mph - N/A Rain Light Rain
10:03 AM 53.6 °F 53.6 °F 100% 29.94 in 9.0 mi NE 8.1 mph - 0.00 in Rain Light Rain
10:26 AM 55.4 °F 53.6 °F 94% 29.96 in 10.0 mi East 4.6 mph - 0.01 in Rain Light Rain
10:56 AM 55.4 °F 53.6 °F 94% 29.92 in 5.0 mi ENE 10.4 mph - N/A Rain Light Rain
11:56 AM 55.0 °F 53.1 °F 93% 29.94 in 5.0 mi ENE 9.2 mph - 0.09 in Rain Rain
12:06 PM 55.4 °F 53.6 °F 94% 29.90 in 6.0 mi ENE 9.2 mph - 0.01 in Rain Light Rain
12:33 PM 55.4 °F 53.6 °F 94% 29.89 in 3.0 mi NE 6.9 mph - N/A Rain Rain
12:56 PM 55.0 °F 54.0 °F 96% 29.92 in 3.0 mi NNE 5.8 mph - 0.13 in Rain Rain
1:01 PM 55.4 °F 53.6 °F 94% 29.87 in 2.5 mi NNE 8.1 mph - N/A Rain Rain
1:13 PM 55.4 °F 53.6 °F 94% 29.86 in 4.0 mi NNE 8.1 mph - 0.03 in Rain Light Rain
1:56 PM 55.0 °F 54.0 °F 96% 29.88 in 4.0 mi NE 13.8 mph - 0.11 in Rain Light Rain
2:26 PM 55.4 °F 53.6 °F 94% 29.83 in 2.5 mi NE 12.7 mph - 0.05 in Rain Rain
2:38 PM 55.4 °F 53.6 °F 94% 29.84 in 3.0 mi East 10.4 mph - 0.08 in Rain Rain
2:45 PM 55.4 °F 53.6 °F 94% 29.84 in 2.0 mi ENE 10.4 mph - 0.10 in Rain Rain
2:56 PM 55.0 °F 54.0 °F 96% 29.87 in 2.5 mi NE 12.7 mph 18.4 mph 0.13 in Rain Light Rain
3:04 PM 55.4 °F 53.6 °F 94% 29.82 in 4.0 mi NE 13.8 mph - 0.01 in Rain Light Rain
3:19 PM 55.4 °F 53.6 °F 94% 29.81 in 2.0 mi NE 10.4 mph 23.0 mph 0.04 in Rain Rain
3:32 PM 55.4 °F 53.6 °F 94% 29.79 in 3.0 mi NE 13.8 mph 20.7 mph 0.05 in Rain Light Rain
3:56 PM 55.0 °F 54.0 °F 96% 29.83 in 2.5 mi NE 13.8 mph - 0.08 in Rain Rain
4:13 PM 55.4 °F 53.6 °F 94% 29.79 in 3.0 mi NE 17.3 mph 23.0 mph 0.02 in Rain Rain
4:22 PM 55.4 °F 53.6 °F 94% 29.78 in 2.0 mi NE 13.8 mph - 0.03 in Rain Rain
4:56 PM 55.0 °F 54.0 °F 96% 29.80 in 3.0 mi NE 15.0 mph 24.2 mph 0.07 in Rain Rain
5:31 PM 55.4 °F 53.6 °F 94% 29.76 in 1.8 mi NE 11.5 mph 20.7 mph 0.04 in Rain Rain
5:49 PM 55.4 °F 55.4 °F 100% 29.76 in 2.5 mi NE 12.7 mph - 0.09 in Rain Rain
5:56 PM 55.0 °F 55.0 °F 100% 29.79 in 2.0 mi NNE 11.5 mph - 0.11 in Rain Rain
6:09 PM 55.4 °F 53.6 °F 94% 29.75 in 4.0 mi NNE 10.4 mph - 0.02 in Rain Rain
6:51 PM 55.4 °F 55.4 °F 100% 29.73 in 2.0 mi NE 15.0 mph 23.0 mph 0.08 in Rain Rain
6:56 PM 55.0 °F 55.0 °F 100% 29.77 in 2.0 mi NNE 15.0 mph 23.0 mph 0.09 in Rain Rain
7:25 PM 55.4 °F 55.4 °F 100% 29.72 in 4.0 mi NNE 13.8 mph - 0.04 in Rain Rain
7:56 PM 55.9 °F 55.0 °F 97% 29.73 in 2.5 mi NE 13.8 mph - 0.06 in Rain Rain
8:10 PM 55.4 °F 55.4 °F 100% 29.69 in 4.0 mi NE 11.5 mph - 0.01 in Rain Rain
8:45 PM 57.2 °F 55.4 °F 94% 29.69 in 10.0 mi NE 12.7 mph 21.9 mph 0.01 in Rain Rain
8:56 PM 57.2 °F 55.4 °F 94% 29.69 in 10.0 mi NE 16.1 mph 23.0 mph N/A   Overcast
9:13 PM 57.2 °F 55.4 °F 94% 29.69 in 4.0 mi NE 17.3 mph 21.9 mph 0.00 in Rain Light Rain
9:56 PM 57.2 °F 55.4 °F 94% 29.67 in 4.0 mi NE 12.7 mph 20.7 mph N/A   Overcast
10:56 PM 55.9 °F 55.0 °F 97% 29.69 in 3.0 mi NE 13.8 mph 23.0 mph 0.01 in Rain Light Rain
11:15 PM 55.4 °F 55.4 °F 100% 29.63 in 2.0 mi NE 15.0 mph 25.3 mph 0.00 in Rain Light Rain
11:29 PM 55.4 °F 55.4 °F 100% 29.62 in 4.0 mi NE 15.0 mph 21.9 mph 0.01 in Rain Light Rain
11:56 PM 55.9 °F 55.0 °F 97% 29.65 in 6.0 mi NE 15.0 mph - 0.01 in Rain Light Rain